Regional Weather Roundup
Issued by NWS Wakefield, VA

Home | Current Version | Previous Version | Graphics & Text | Print | Product List | Glossary On
Versions: 1 2 3 4 5 6 7 8 9 10 11 12 13 14 15 16 17 18 19 20 21 22 23 24 25 26 27 28 29 30 31 32 33 34 35 36 37 38 39 40 41 42 43 44 45 46 47 48 49 50
639
ASUS41 KAKQ 230415
RWRAKQ

REGIONAL WEATHER ROUNDUP
NATIONAL WEATHER SERVICE WAKEFIELD VA
1200 AM EDT SAT JUL 23 2016

Note: "fair" indicates few or no clouds below 12,000 feet with no
significant weather and/or obstructions to visibility. * = Denotes
station may not report precipitation (e.g., rain,snow,etc.),
thunder or fog.

VAZ042-051-052>054-056-230500-
NORTHERN VIRGINIA

CITY           SKY/WX    TMP DP  RH WIND       PRES   REMARKS
WASH NATIONAL  FAIR      83  71  67 S7        29.93S
DULLES         FAIR      78  71  79 S5        29.95R
FORT BELVOIR   FAIR      77  72  83 SE1       29.94R
QUANTICO       FAIR      83  70  64 W9        29.95R
FREDERICKSBRG* FAIR      81  73  78 CALM      29.94S
STAFFORD*      FAIR      76  70  81 CALM      29.99S
WARRENTON      FAIR      75  69  80 S3        29.95S
CULPEPER*      FAIR      75  74  95 CALM      29.97R
MANASSAS*      FAIR      75  75 100 SE3       29.95S
LEESBURG*      FAIR      79  77  94 W5        29.96R
WINCHESTER     FAIR      81  68  65 SW5       29.97S
FRONT ROYAL*   FAIR      77  72  83 CALM      29.97S
LURAY*         FAIR      77  72  83 S3        30.00S
$$

VAZ048-049-060>072-079>083-230500-
CENTRAL AND SOUTH CENTRAL VIRGINIA

CITY           SKY/WX    TMP DP  RH WIND       PRES   REMARKS
RICHMOND       FAIR      80  74  81 SW7       29.96S
CHESTERFIELD*  FAIR      79  64  61 SW3       29.98S
PETERSBURG*    FAIR      79  79  99 SW3       29.98S
HANOVER        FAIR      75  70  84 CALM      29.98R
TAPPAHANNOCK*  FAIR      80  78  95 S5        29.96S
QUINTON*       FAIR      79  76  92 CALM      29.96S
CHARLOTTSVILLE FAIR      79  72  79 CALM      29.99R
GORDONSVILLE*  FAIR      74  72  93 CALM      29.97S
ORANGE*          N/A     75  75 100 CALM      29.99S
LOUISA*        FAIR      75  72  88 CALM      29.97S
BUMPASS*       FAIR      74  73  98 CALM      29.97S
FARMVILLE*     FAIR      79  76  90 CALM      29.98S
CREWE*         FAIR      80  78  95 CALM      29.98S
FORT PICKETT*  FAIR      78  77  98 SW12      29.99S
CHASE CITY*    FAIR      79  76  93 CALM      30.00F
CLARKSVILLE*   FAIR      77  73  88 SW5       30.00S
SOUTH HILL*    FAIR      77  74  88 SW6       30.05S
LAWRENCEVILLE* FAIR      77  75  94 CALM      29.99S
EMPORIA*         N/A     77  73  88 CALM      30.00R
$$

VAZ088>098-230500-
SOUTHEAST VIRGINIA

CITY           SKY/WX    TMP DP  RH WIND       PRES   REMARKS
NORFOLK        FAIR      82  72  71 SW13      29.98R
VIRGINIA BEACH FAIR      85  71  63 SW12      29.97R
NORFOLK NAVAL  FAIR      82  72  71 SW10      29.99R
WEST POINT*    FAIR      81  75  80 SW6       29.97S
SALUDA*        FAIR      81  77  86 SW5       29.95S
NEWPORT NEWS   FAIR      82  74  76 SW10      29.97R
LANGLEY AFB    FAIR      83  73  73 S13       29.97R
FORT EUSTIS    FAIR      82  76  82 SW6       29.95S
WILLIAMSBURG*  FAIR      82  75  78 SW6       29.98R
HR EXEC AP*    FAIR      79  72  78 SW7       30.01R
FRANKLIN*      FAIR      78  73  83 S5        29.99R
US460-WAKEFLD  FAIR      79  74  84 S3        29.98R
$$

VAZ020-022-025-037-045-230500-
WEST CENTRAL AND SOUTHWEST VIRGINIA

CITY           SKY/WX    TMP DP  RH WIND       PRES   REMARKS
STAUNTON*      FAIR      72  68  87 CALM      30.05S
WAYNESBORO*    FAIR      72  68  88 SW5       30.05S
HOT SPRINGS VA NOT AVBL
LYNCHBURG      FAIR      73  71  93 CALM      30.03S
DANVILLE       FAIR      76  70  82 S3        30.02R
SOUTH BOSTON*  FAIR      76  74  95 CALM      30.01R
MARTINSVILLE   FAIR      71  69  94 CALM      30.06R
ROANOKE        FAIR      79  70  74 CALM      30.06S
BLACKSBURG     FAIR      70  68  91 CALM      30.14S
DUBLIN*        FAIR      71  67  89 CALM      30.13R
MARION*        FAIR      69  67  92 CALM      30.18R
HILLSVILLE*    FAIR      75  65  71 CALM      30.14F
RICHLANDS*     FAIR      71  67  89 NE3       30.16R
WISE*          FAIR      73  59  60 CALM      30.16S
ABINGDON*      FAIR      75  68  77 CALM      30.11S
$$

MDZ021>025-VAZ099-100-230500-
SOUTHERN MARYLAND AND THE DELMARVA PENINSULA

CITY           SKY/WX    TMP DP  RH WIND       PRES   REMARKS
PATUXENT RIVER CLEAR     81  70  69 SW7       29.93R
BAY BRIDGE APT CLEAR     82  73  74 W7        29.91S
LEONARDTOWN    CLEAR     79  72  78 SW5       29.96R
DOVER          CLEAR     81  75  82 SW10      29.89S
GEORGETOWN     CLEAR     79  76  90 SW7       29.93R
EASTON         CLEAR     84  75  76 W5        29.96R
CAMBRIDGE      CLEAR     79  73  83 CALM      29.92S
SALISBURY      CLEAR     78  76  93 S6        29.93R
OCEAN CITY     CLEAR     81  76  84 SW9       29.93R
WALLOPS ISLAND FAIR      80  76  87 SW8       29.95R
ACCOMACK*      FAIR      82  73  74 CALM      29.95S
$$

NCZ012>017-030>032-230500-
NORTH CENTRAL AND EASTERN NORTH CAROLINA

CITY           SKY/WX    TMP DP  RH WIND       PRES   REMARKS
ROANOKE RAPIDS FAIR      77  73  88 S6        30.00R
RALEIGH        PTCLDY    74  70  87 SW6       30.02S
ELIZABETH CITY PTCLDY    80  70  71 SW10      30.00S
AHOSKIE*       CLEAR     76  72  87 S3        30.00S
EDENTON*       PTCLDY    81  70  68 SW9       30.01S
CURRITUCK*     PTCLDY    80  72  77 S5        30.00S
KILL DEVIL HLS PTCLDY    80  70  70 SW7       30.00S
MANTEO           N/A     80  73  78 SW14      30.02R
CAPE HATTERAS  CLEAR     82  72  71 SW9       30.03S
TARBORO*       FAIR      78  73  83 S5        30.01S
GOLDSBORO      CLEAR     78  76  92 S2        30.01R
WASHINGTON     CLEAR     78  70  77 S5        30.02R
GREENVILLE     CLEAR     79  72  78 SW6       30.03S
NEW BERN       CLEAR     77  71  82 S5        30.04S
WILMINGTON     CLEAR     78  70  76 S6        30.03F
$$

VAZ048-230500-
ELSEWHERE

CITY           SKY/WX    TMP DP  RH WIND       PRES   REMARKS
HARRISBURG PA  CLEAR     83  69  62 NW8       29.89R
BALTIMORE      PTCLDY    82  71  69 SW8       29.91R
ANNAPOLIS      CLEAR     83  71  67 VRB5      29.91R
ANDREWS AFB    FAIR      80  70  71 SW7       29.93S
PHILADELPHIA   PTCLDY    82  72  71 SW10      29.87S
GREENSBORO     MOCLDY    77  70  79 S7        30.04R
ROCKY MOUNT    CLEAR     76  73  91 S3        30.01R
$$

VAZ100-230500-
MARINE

STATION/POSITION TIME  TEMP    WIND        PRES    WAVE   SWELL
                       AIR SEA DIR/SP/G            HT/PER HT/PER
                 (UTC) (F)     (DEG/KT/KT) (MB)    (FT/S) (FT/S)
BRANDYWINE LGT   0300   80                   N/A
CAPE MAY NJ      0300   78 75                N/A
LEWES DE         0300   81 73                N/A
OCEAN-CITY-INLET 0300   80 70                N/A
WACHAPREAGUE VA  0300   82 84                N/A
THOMAS POINT MD  0400   83 82  250/ 13/ 14 1014.3R
GOOSES REEF MD   0300   85 83  240/  8/ 10 1014.2R   1/ 2
COVE POINT MD    0300   85                   N/A
SOLOMONS ISLAND  0300   83 83                N/A
BISHOPS HEAD MD  0300   86 87                N/A
PINEY POINT MD   0300          240/  6/  8   N/A
POTOMAC MD       0300   84 83  240/  8/ 10 1012.6R   0
CAMBRIDGE MD     0300   83 85                N/A
LEWISETTA VA     0300   83 86                N/A
RAPPAHANNOCK LGT 0300          220/ 14/ 16 1014.6
STINGRAY PT      0300   85 84  170/ 12/ 16 1014.4R   1/ 2
YORK RVR RNG VA  0300   85                   N/A
YORKTOWN VA      0300   83 83                N/A
JAMESTOWN VA     0300   83 87  210/ 10/ 12   N/A
DOMINION TERM VA 0300   83                   N/A
KIPTOPEKE VA     0300      84                N/A
CHES BAY BRIDGE  0300   83 81                N/A
CAPE HENRY VA    0300   82                   N/A
WILLOUBY STN VA  0300   84                   N/A
CAPE HENRY BUOY  0312      82                N/A     3/ 9
1ST LANDING BUOY 0300   83 82  200/ 14/ 17 1014.1S
CAPE CHARLES BUO 0326      74                N/A     3/ 9
OFFSHORE WE BUOY 0321      82                N/A     3/ 5
64NM E OF VA BCH 0350   81 80  210/ 16/ 17 1015.1R   3/ 4   2/ 8
DUCK PIER NC     0300   82 69                N/A
44100 DUCK FRF   0305      81                N/A     2/ 8
44056 DUCK FRF   0311      77                N/A     2/ 8
OREGON INLET NC  0300   84 84                N/A
HATTERAS NC      0300   82 84                N/A
DIAMOND SHLS NC  0350   83 87  220/ 12/ 14 1016.8R   2/ 8   2/ 8
CAPE LOOKOUT NC  0400   82     220/  7/  8 1016.6S
$$




USA.gov is the U.S. government's official web portal to all federal, state and local government web resources and services.